Wind_Speed
54 56 55 55 57 57 56 54 53 50 48 48 49 49 48 47 47 46 44 43 42 41 39 38 37 37 37 36 36 37 37 37 37 37 38 39 40 41 41 43 44 45 47
52 55 55 55 57 56 53 53 52 51 50 49 48 47 46 45 45 44 43 42 41 40 39 38 38 38 37 36 37 37 36 36 37 38 38 38 39 40 42 43 44 45 46
51 52 53 55 57 56 54 54 52 50 49 50 49 47 45 44 44 44 43 42 41 39 39 38 38 37 37 36 36 36 36 36 37 37 38 38 40 41 42 43 44 45 47
50 51 52 53 54 56 54 53 53 51 49 49 49 48 46 44 44 43 43 42 41 40 39 38 38 37 37 36 36 36 36 36 37 37 37 38 40 41 42 42 44 46 47
50 51 51 52 53 55 54 52 53 51 48 47 48 49 47 45 44 43 42 42 41 39 39 38 38 37 37 36 35 35 36 36 36 37 38 38 39 40 41 42 44 46 48
50 51 52 52 53 53 53 52 51 51 50 46 47 47 47 46 44 43 42 41 39 39 39 38 37 36 35 34 34 35 36 36 36 37 37 38 39 39 41 43 45 46 48
48 50 53 53 51 52 53 52 51 51 50 47 45 46 46 46 45 43 42 40 38 38 38 37 36 34 34 34 35 36 36 35 36 37 37 38 39 40 42 44 46 47 49
47 51 53 52 50 51 53 52 50 51 50 47 45 44 44 44 44 43 42 40 38 38 38 37 36 35 34 34 34 35 35 35 35 36 36 38 39 40 42 44 45 47 50
46 49 52 54 52 51 51 51 50 50 50 48 45 43 42 43 43 42 42 40 37 36 36 36 35 35 34 34 34 33 33 34 34 34 36 38 39 41 42 44 46 48 49
45 48 50 53 53 52 51 50 49 49 49 48 45 42 41 42 42 41 40 40 38 37 36 35 34 34 34 33 33 32 32 33 33 34 36 37 39 40 42 43 45 47 48
44 46 49 52 53 52 52 51 50 48 47 47 45 42 41 41 41 41 39 39 37 36 35 34 33 33 33 32 31 32 32 32 32 34 36 37 39 40 41 43 45 46 47
42 44 47 50 50 51 52 52 51 49 48 47 45 44 41 41 40 39 38 37 36 36 35 34 33 33 33 32 32 32 32 32 33 34 35 37 38 40 41 43 44 45 46
41 42 44 46 47 50 51 51 50 49 48 47 45 44 42 41 39 37 36 36 35 35 35 34 33 32 33 33 32 32 31 32 32 33 35 37 38 40 41 42 43 44 46
38 40 42 43 44 46 48 50 49 48 47 46 45 44 43 41 39 37 36 35 35 35 35 34 33 33 32 32 31 30 30 31 32 33 34 36 38 39 40 41 41 43 46
39 39 41 42 42 42 44 46 47 47 46 45 43 42 41 39 37 36 34 33 33 34 34 33 32 31 30 30 29 30 30 31 31 32 34 36 36 37 38 38 40 43 46
39 39 40 41 42 41 41 43 45 44 43 44 43 42 40 38 36 35 34 35 34 33 32 31 30 28 27 27 28 28 29 30 30 32 34 35 36 36 36 38 40 43 46
38 39 39 40 41 41 41 41 42 43 42 42 41 41 41 40 37 34 34 34 33 33 32 31 29 28 26 27 28 28 29 29 30 32 33 34 34 34 35 37 40 42 44
38 38 39 39 40 41 41 41 42 41 40 40 40 40 39 39 37 35 34 33 33 33 32 31 30 29 27 27 27 28 28 29 30 31 32 32 33 33 34 37 39 41 42
38 38 38 39 39 40 41 41 41 41 40 39 39 40 39 39 38 36 34 33 32 31 30 30 29 28 27 27 27 27 28 28 29 30 30 30 31 32 33 36 38 39 40
38 38 38 39 40 40 40 41 41 40 40 39 38 38 38 37 36 34 33 32 31 30 28 28 28 28 27 27 27 26 27 27 28 28 28 28 29 30 33 35 36 38 39
38 38 39 40 40 40 40 41 41 41 41 40 38 37 36 35 35 34 33 32 31 29 28 27 26 26 26 26 25 25 25 25 26 26 26 27 28 29 31 33 35 36 36
37 38 39 40 40 40 40 40 41 41 41 40 39 37 36 35 34 33 32 30 29 28 27 26 26 25 24 24 23 23 23 23 23 24 25 26 27 28 30 32 33 33 33
37 38 39 40 40 39 39 40 41 41 40 39 37 36 35 34 33 32 31 28 26 25 25 25 25 24 22 22 21 21 21 21 21 22 23 24 25 26 28 30 30 31 31
36 38 39 39 40 40 39 40 40 40 39 38 36 35 34 33 32 31 30 28 25 24 24 23 23 22 21 20 19 19 20 19 19 20 21 22 23 25 27 28 28 28 29
35 37 38 39 41 41 39 39 39 39 38 37 35 34 33 32 31 30 29 27 25 23 22 21 20 20 19 19 19 18 18 18 18 20 20 21 23 25 26 26 26 27 27
35 37 38 39 40 41 40 39 38 38 38 37 35 33 32 30 30 29 28 26 25 23 22 20 18 18 18 18 18 18 17 17 18 19 20 21 22 24 23 24 25 25 25
Wind_Direction
220 219 218 220 219 219 220 221 222 224 225 226 226 227 230 232 235 236 238 240 244 247 251 255 258 261 265 269 274 278 281 284 287 290 293 296 299 302 305 307 309 311 312
221 219 218 219 219 219 220 220 222 224 225 225 226 227 230 233 234 236 238 240 243 247 251 254 257 261 265 270 274 278 281 284 287 290 293 296 299 302 305 307 309 311 313
221 218 218 219 221 221 221 220 221 223 225 226 227 228 230 233 235 236 238 240 243 248 252 255 257 261 265 270 274 277 280 284 287 290 293 296 299 302 305 307 310 312 313
220 219 218 218 221 222 221 220 221 223 224 226 228 228 230 233 234 235 236 240 244 248 252 254 257 261 265 270 274 278 281 284 287 290 292 296 299 302 305 308 310 313 314
222 219 217 218 221 221 222 222 223 223 224 226 227 229 231 233 234 236 237 240 244 249 251 254 257 261 265 269 273 277 281 284 287 289 292 295 299 302 305 308 311 313 315
223 221 219 219 221 221 222 222 223 224 224 225 227 229 232 233 234 236 237 240 244 248 251 255 257 260 265 269 272 277 281 284 287 290 292 295 299 303 305 308 311 313 315
223 221 220 219 220 221 221 222 223 225 224 225 227 230 231 233 235 236 238 240 244 249 252 253 256 260 265 269 272 277 280 284 287 290 293 296 300 303 306 309 312 314 315
224 221 220 219 220 220 220 221 223 225 224 226 228 230 231 234 235 236 238 240 244 249 251 254 257 261 266 270 274 277 280 283 287 290 294 297 300 304 307 310 312 314 316
224 223 222 221 220 220 219 220 223 224 225 225 227 229 232 233 234 236 238 240 244 248 251 255 258 262 265 269 273 276 278 282 286 290 295 298 301 305 308 310 313 315 317
225 225 224 223 222 221 219 220 221 222 225 226 226 228 230 232 234 236 237 240 243 247 251 254 257 261 264 267 271 275 278 282 287 291 295 299 303 306 309 312 314 316 317
226 226 225 224 223 222 221 220 220 222 224 225 226 227 230 232 234 235 236 238 242 246 249 253 256 259 262 266 270 275 279 283 287 291 296 300 303 306 309 312 314 316 318
225 225 225 224 223 222 222 221 221 222 224 226 226 227 230 232 233 234 237 239 242 244 247 251 256 260 264 266 269 273 277 282 287 292 296 300 304 307 309 312 314 316 318
225 225 224 224 224 223 223 222 221 223 224 225 227 227 228 230 233 234 236 239 240 244 247 252 256 260 264 266 269 272 276 281 287 292 297 301 304 307 310 312 315 317 319
223 224 223 222 223 223 223 223 221 222 223 224 226 227 227 229 231 232 236 239 241 244 248 252 257 261 264 266 269 272 276 282 288 293 298 301 304 307 310 313 315 318 321
222 222 221 221 221 220 220 222 222 221 220 221 222 223 224 226 228 231 235 238 241 244 247 251 256 260 263 266 268 273 278 282 288 294 298 302 305 308 310 313 315 318 321
221 221 220 219 218 218 218 219 220 219 218 219 220 220 220 224 225 227 233 236 239 242 246 249 252 256 261 265 269 275 280 284 289 294 299 303 305 308 310 313 317 320 323
220 219 218 216 216 217 216 217 218 219 219 218 218 219 221 223 224 228 233 236 239 243 245 246 249 254 260 265 269 275 281 286 291 295 298 303 306 309 311 314 318 321 324
218 216 215 214 214 214 214 215 217 217 217 217 217 217 218 220 223 228 233 236 240 242 243 245 249 253 258 264 268 275 281 287 291 295 299 303 306 308 311 315 319 322 325
216 214 213 212 211 211 210 212 214 214 214 214 215 215 217 219 223 229 233 236 238 239 242 245 248 252 257 262 268 275 281 286 291 295 299 303 307 310 313 317 321 325 327
215 214 212 210 208 208 208 209 209 209 210 210 212 214 215 219 222 226 231 234 236 237 241 245 247 251 256 262 269 276 282 287 292 296 299 302 307 311 316 319 322 326 328
213 211 209 208 206 206 206 206 206 206 207 208 209 212 216 220 222 223 227 230 231 234 239 243 247 251 258 263 270 277 282 288 292 295 298 303 308 313 317 321 324 327 330
210 208 207 205 203 203 203 203 203 204 205 206 207 211 216 218 220 220 222 225 229 232 235 240 245 250 254 260 269 277 283 288 292 295 299 305 309 314 320 323 325 329 332
206 204 203 201 199 199 201 202 201 202 204 205 208 212 215 217 218 218 219 222 225 229 233 238 243 247 253 261 269 278 284 288 293 299 303 307 312 316 320 323 327 331 334
202 201 199 198 197 197 197 199 200 201 203 206 208 210 211 213 215 217 218 220 221 225 231 236 240 245 252 260 268 276 282 286 293 300 304 308 312 317 321 324 329 333 336
199 198 197 196 196 195 196 197 199 200 201 203 205 207 208 211 213 214 216 218 220 224 228 231 236 242 250 258 268 275 280 285 293 300 304 307 313 318 322 325 329 333 336
196 195 194 193 193 194 195 196 197 198 199 201 204 206 207 208 209 210 213 217 219 222 224 227 234 243 251 259 268 274 279 284 292 299 303 308 314 319 323 327 331 334 336
Height
5557 5566 5576 5585 5595 5604 5613 5622 5631 5640 5647 5655 5663 5670 5677 5684 5690 5696 5702 5706 5711 5715 5718 5721 5724 5726 5727 5728 5728 5728 5728 5727 5725 5723 5721 5718 5714 5710 5706 5702 5697 5691 5685
5548 5557 5567 5576 5585 5594 5604 5613 5622 5631 5639 5647 5654 5662 5668 5675 5681 5687 5693 5698 5703 5707 5710 5713 5716 5717 5719 5720 5720 5720 5719 5718 5717 5716 5713 5710 5706 5703 5698 5694 5688 5683 5676
5540 5549 5558 5568 5577 5586 5595 5604 5613 5622 5630 5638 5646 5653 5660 5667 5673 5679 5684 5689 5694 5698 5702 5705 5707 5709 5711 5712 5712 5712 5711 5710 5709 5708 5705 5702 5699 5695 5691 5686 5680 5674 5668
5532 5541 5549 5559 5568 5577 5586 5595 5604 5613 5622 5630 5637 5645 5652 5658 5664 5670 5676 5681 5685 5690 5693 5696 5699 5701 5703 5703 5704 5704 5703 5702 5701 5699 5697 5694 5691 5687 5682 5678 5672 5666 5659
5523 5532 5540 5549 5559 5568 5577 5586 5595 5604 5613 5621 5628 5636 5643 5650 5656 5662 5668 5672 5677 5681 5685 5688 5690 5692 5694 5695 5696 5696 5695 5694 5693 5691 5689 5686 5683 5679 5675 5670 5664 5658 5651
5515 5523 5532 5541 5549 5559 5569 5577 5586 5595 5604 5612 5619 5626 5634 5641 5648 5653 5659 5664 5668 5672 5676 5679 5682 5684 5686 5687 5687 5688 5687 5686 5685 5683 5681 5678 5675 5671 5666 5661 5656 5650 5644
5506 5514 5523 5532 5541 5550 5559 5569 5578 5586 5595 5603 5610 5618 5625 5633 5639 5644 5650 5655 5660 5664 5668 5671 5673 5676 5677 5679 5679 5679 5679 5678 5677 5675 5673 5670 5667 5663 5658 5653 5647 5640 5634
5497 5506 5514 5523 5532 5541 5550 5560 5569 5577 5585 5594 5601 5609 5616 5623 5629 5635 5641 5646 5651 5655 5659 5662 5665 5667 5669 5670 5671 5671 5671 5670 5669 5667 5665 5662 5658 5654 5649 5644 5638 5632 5624
5489 5496 5505 5514 5523 5532 5541 5551 5560 5568 5576 5584 5592 5600 5607 5614 5620 5627 5632 5638 5643 5647 5651 5654 5657 5659 5661 5662 5663 5663 5663 5662 5661 5659 5657 5653 5650 5645 5641 5635 5630 5623 5616
5480 5487 5495 5504 5514 5523 5532 5542 5550 5559 5567 5575 5583 5591 5599 5606 5612 5618 5624 5630 5635 5639 5643 5646 5649 5651 5653 5654 5655 5655 5655 5654 5653 5651 5649 5645 5641 5637 5632 5627 5621 5614 5607
5472 5479 5487 5495 5505 5514 5523 5532 5541 5550 5558 5567 5575 5583 5590 5597 5604 5610 5616 5621 5626 5631 5634 5638 5641 5643 5645 5646 5647 5647 5647 5646 5645 5643 5640 5637 5633 5629 5624 5618 5612 5605 5598
5463 5470 5478 5486 5495 5504 5513 5522 5532 5541 5550 5558 5566 5574 5581 5589 5595 5602 5608 5613 5618 5622 5626 5630 5632 5635 5637 5638 5639 5639 5639 5638 5637 5635 5632 5629 5625 5621 5616 5610 5603 5596 5589
5455 5462 5470 5478 5486 5495 5504 5513 5522 5532 5541 5549 5558 5566 5573 5581 5587 5594 5600 5604 5609 5614 5618 5621 5624 5627 5629 5630 5631 5631 5631 5630 5629 5627 5625 5622 5618 5613 5607 5601 5595 5588 5581
5447 5454 5462 5470 5478 5487 5495 5504 5513 5523 5532 5541 5549 5557 5565 5573 5579 5586 5591 5596 5601 5606 5610 5613 5616 5619 5620 5622 5623 5623 5623 5623 5622 5620 5617 5614 5609 5604 5599 5593 5587 5580 5573
5439 5446 5453 5462 5470 5479 5487 5496 5505 5515 5523 5532 5541 5549 5557 5565 5572 5578 5583 5589 5594 5598 5602 5606 5609 5611 5613 5614 5615 5616 5616 5615 5614 5612 5609 5605 5601 5596 5591 5586 5580 5573 5566
5431 5438 5445 5453 5462 5470 5479 5487 5496 5506 5514 5523 5532 5540 5549 5556 5563 5569 5575 5581 5586 5591 5595 5598 5601 5603 5605 5607 5608 5608 5608 5608 5606 5604 5601 5597 5593 5589 5584 5578 5572 5565 5558
5423 5430 5437 5445 5454 5462 5471 5480 5488 5497 5506 5515 5523 5532 5540 5548 5555 5561 5567 5573 5578 5583 5587 5591 5594 5596 5598 5600 5601 5601 5601 5600 5598 5596 5593 5590 5585 5581 5576 5571 5565 5558 5550
5415 5422 5430 5437 5446 5455 5463 5472 5481 5490 5498 5507 5516 5524 5532 5540 5547 5554 5560 5565 5570 5575 5580 5583 5586 5589 5592 5593 5594 5594 5593 5592 5591 5588 5585 5582 5578 5574 5569 5564 5557 5550 5543
5407 5414 5422 5430 5438 5447 5456 5465 5474 5483 5492 5500 5509 5517 5525 5532 5539 5546 5552 5558 5563 5568 5572 5576 5579 5582 5584 5586 5586 5587 5586 5585 5583 5581 5578 5574 5571 5567 5562 5557 5550 5543 5536
5399 5407 5414 5422 5431 5439 5448 5458 5467 5476 5485 5494 5502 5511 5518 5526 5532 5539 5545 5551 5556 5561 5565 5569 5572 5575 5577 5579 5579 5579 5579 5578 5576 5573 5571 5568 5564 5560 5556 5550 5544 5537 5531
5391 5399 5407 5415 5424 5433 5442 5451 5460 5470 5479 5488 5496 5504 5512 5519 5526 5532 5538 5544 5549 5554 5558 5562 5565 5568 5570 5571 5572 5572 5571 5570 5568 5567 5564 5561 5558 5554 5549 5544 5538 5532 5525
5384 5392 5400 5409 5417 5426 5435 5444 5454 5463 5472 5481 5490 5498 5505 5512 5519 5526 5532 5538 5543 5548 5552 5555 5558 5561 5563 5564 5565 5565 5564 5563 5562 5560 5558 5555 5552 5548 5543 5538 5533 5527 5521
5378 5386 5394 5403 5411 5420 5429 5439 5448 5458 5467 5475 5484 5492 5499 5506 5513 5520 5526 5531 5536 5541 5545 5548 5552 5554 5556 5558 5558 5558 5558 5557 5555 5554 5552 5549 5546 5542 5538 5533 5528 5522 5516
5373 5381 5390 5398 5407 5415 5424 5434 5443 5453 5462 5471 5479 5486 5493 5500 5507 5514 5519 5525 5530 5535 5539 5542 5545 5548 5550 5551 5552 5552 5552 5551 5549 5548 5546 5543 5540 5537 5533 5528 5523 5518 5513
5369 5377 5385 5394 5403 5411 5420 5430 5439 5448 5457 5466 5473 5481 5488 5495 5501 5507 5513 5519 5524 5529 5533 5536 5539 5542 5544 5545 5546 5546 5545 5545 5544 5542 5540 5538 5535 5532 5528 5523 5519 5514 5509
5365 5374 5382 5391 5399 5408 5417 5426 5435 5443 5452 5461 5468 5476 5483 5490 5496 5502 5508 5514 5519 5524 5528 5531 5533 5536 5538 5539 5539 5540 5539 5539 5538 5537 5535 5533 5530 5527 5523 5519 5515 5510 5506